Date,TemperatureHighF,TemperatureAvgF,TemperatureLowF,DewpointHighF,DewpointAvgF,DewpointLowF,HumidityHigh,HumidityAvg,HumidityLow,PressureMaxIn,PressureMinIn,WindSpeedMaxMPH,WindSpeedAvgMPH,GustSpeedMaxMPH,PrecipitationSumIn
2013-1-1,25.0,10.6,0.5,19.8,-0.7,-13.6,86,60,42,29.28,29.06,10,5,12,0.00
2013-1-2,11.5,3.7,-5.1,-10.9,-14.8,-18.2,52,41,30,29.51,29.26,21,7,21,0.00
2013-1-3,15.3,3.3,-6.2,-5.1,-11.6,-18.4,57,49,36,29.57,29.45,11,4,11,0.00
2013-1-4,27.0,18.5,-1.8,19.0,9.4,-15.0,82,67,52,29.46,29.18,16,5,20,0.00
2013-1-5,28.8,22.3,17.6,22.5,8.2,-4.6,82,56,34,29.68,29.17,14,6,14,0.00
2013-1-6,22.6,11.2,2.7,8.5,1.4,-8.3,73,64,51,29.81,29.52,7,3,7,0.00
2013-1-7,17.8,5.9,-3.1,2.2,-14.9,-21.6,68,38,22,29.98,29.63,9,3,10,0.00
2013-1-8,32.7,22.7,-4.2,23.6,12.2,-19.0,79,64,46,29.89,29.72,8,3,11,0.00
2013-1-9,38.1,32.6,20.5,30.6,24.4,16.7,94,73,52,29.97,29.33,17,8,18,0.00
2013-1-10,40.1,32.3,21.4,32.1,21.2,11.4,95,64,51,30.03,29.31,24,7,27,0.05
2013-1-11,43.3,28.0,14.2,15.4,11.3,6.2,74,50,28,30.09,29.88,8,3,8,0.00
2013-1-12,35.2,32.5,26.4,32.7,24.5,10.9,93,73,51,29.89,29.68,14,6,14,0.00
2013-1-13,42.6,37.2,34.2,42.4,36.2,32.4,99,96,90,29.72,29.51,17,7,17,0.00
2013-1-14,54.7,39.8,28.2,51.7,27.9,15.4,99,64,42,29.78,29.40,16,5,17,0.00
2013-1-15,38.5,26.3,16.2,16.1,6.0,-0.9,58,42,26,29.90,29.78,8,2,9,0.00
2013-1-16,28.6,24.1,17.8,24.8,15.9,-0.4,86,71,44,29.83,29.35,11,3,11,0.00
2013-1-17,40.6,18.5,-4.4,34.4,2.8,-26.3,88,52,25,29.74,29.25,17,4,17,0.12
2013-1-18,11.8,1.2,-12.1,-17.2,-23.7,-29.2,46,30,21,29.86,29.72,10,3,10,0.00
2013-1-19,23.0,12.9,-0.8,11.8,-0.0,-20.7,70,56,35,29.85,29.54,11,5,11,0.00
2013-1-20,39.7,26.3,7.7,30.4,13.8,-9.7,81,60,41,29.55,28.95,30,8,30,0.06
2013-1-21,12.9,5.2,-0.6,-11.2,-17.4,-21.3,45,34,24,29.57,29.29,14,4,17,0.00
2013-1-22,15.3,-1.0,-10.1,-16.0,-21.7,-28.4,49,36,21,29.52,29.39,8,2,9,0.00
2013-1-23,2.7,-8.8,-12.8,-21.6,-32.4,-36.8,45,30,21,29.51,29.39,12,7,17,0.00
2013-1-24,7.7,-3.3,-11.6,-22.2,-27.3,-34.4,38,30,22,29.51,29.35,14,6,18,0.00
2013-1-25,17.8,2.2,-6.0,-11.7,-18.2,-25.6,43,37,25,29.66,29.49,17,5,17,0.00
2013-1-26,17.1,5.2,-5.3,-9.6,-13.8,-21.2,45,40,26,29.62,29.52,12,4,15,0.00
2013-1-27,23.2,11.4,1.2,-0.7,-7.9,-16.6,49,41,29,29.91,29.58,17,6,17,0.00
2013-1-28,32.9,17.2,-1.1,-0.8,-10.6,-18.1,47,29,21,29.92,29.68,8,2,8,0.00
2013-1-29,36.0,18.5,5.9,8.0,-1.5,-16.6,53,41,27,29.81,29.64,9,2,9,0.00
2013-1-30,47.3,38.7,21.4,47.0,34.8,6.5,99,87,50,29.73,29.00,24,11,24,0.17
2013-1-31,53.8,40.3,21.0,53.0,33.6,6.6,99,78,48,28.96,28.31,42,12,42,1.33
2013-2-1,20.5,12.4,5.2,6.9,-4.3,-10.4,55,46,39,29.55,28.86,14,5,17,0.00
2013-2-2,17.8,8.6,0.1,-6.8,-10.8,-17.9,54,41,27,29.72,29.53,12,4,14,0.00
2013-2-3,28.8,13.9,5.9,12.9,3.9,-6.6,71,64,49,29.69,29.27,8,3,8,0.00
2013-2-4,26.8,16.7,7.3,11.2,2.5,-8.6,71,54,38,29.27,29.03,14,7,18,0.00
2013-2-5,17.2,8.0,-3.3,-8.9,-18.1,-22.4,47,29,22,29.59,29.25,13,6,17,0.00
2013-2-6,24.1,12.6,4.1,15.9,-0.1,-12.6,76,57,44,29.61,29.47,11,4,11,0.00
2013-2-7,9.7,-1.8,-8.5,-7.8,-22.9,-29.9,60,36,21,30.19,29.76,12,4,12,0.00
2013-2-8,12.7,5.6,-9.4,-4.9,-11.7,-28.0,55,44,31,30.18,29.81,15,3,15,0.00
2013-2-9,13.1,11.2,6.6,6.4,2.3,-15.8,75,68,31,29.81,29.52,19,8,20,0.00
2013-2-10,35.6,18.4,9.0,7.2,-0.3,-3.6,68,45,25,30.00,29.64,11,4,11,0.00
2013-2-11,32.4,23.7,6.1,31.4,13.3,-9.8,96,67,36,29.96,29.27,17,6,19,0.00
2013-2-12,36.7,34.1,32.2,34.4,30.9,28.6,98,88,81,29.34,29.13,8,2,9,0.15
2013-2-13,37.9,29.8,26.2,28.4,21.1,17.5,84,70,56,29.47,29.33,7,1,7,0.01
2013-2-14,43.2,27.6,18.3,24.0,15.9,11.1,77,62,42,29.67,29.41,8,2,9,0.00
2013-2-15,25.7,25.0,23.7,14.9,14.6,14.0,67,64,63,29.67,29.66,3,2,3,0.00
2013-2-16,33.1,28.4,23.7,28.2,22.8,17.6,94,79,71,29.65,29.50,0,0,7,0.01
2013-2-17,22.8,18.9,16.0,17.0,12.1,9.8,79,74,69,29.48,28.67,23,2,26,0.00
2013-2-18,28.4,19.4,9.3,10.3,5.0,-1.4,76,53,43,29.47,28.76,24,7,25,0.00
2013-2-19,41.2,26.9,12.4,17.0,10.2,-1.1,56,50,32,29.71,29.48,14,4,14,0.01
2013-2-20,34.9,29.6,21.2,32.6,24.5,14.9,93,81,66,29.44,29.06,11,2,14,0.05
2013-2-21,36.0,29.7,23.0,28.0,22.7,16.3,82,75,71,29.83,29.18,11,2,14,0.05
2013-2-22,39.9,27.3,17.1,22.6,16.4,8.9,77,64,46,30.08,29.84,7,2,9,0.07
2013-2-23,34.9,25.2,14.7,19.9,15.2,8.5,79,66,53,30.05,29.80,11,4,11,0.02
2013-2-24,31.3,24.8,19.4,20.0,16.7,13.1,82,72,54,29.79,29.56,6,3,6,0.00
2013-2-25,49.3,31.6,16.9,14.0,6.5,0.9,79,37,21,29.89,29.62,7,2,8,0.01
2013-2-26,31.1,29.5,24.4,16.9,14.4,4.2,58,53,41,29.92,29.89,2,0,2,0.01
2013-2-27,48.4,33.1,15.4,22.8,16.1,6.4,74,50,28,29.89,29.54,9,4,9,0.00
2013-2-28,31.3,28.4,26.2,27.6,23.0,15.5,94,81,53,29.52,29.23,11,6,11,0.00
2013-3-1,35.8,30.8,26.4,29.2,25.9,23.5,94,82,68,29.26,29.18,10,4,11,0.02
2013-3-2,40.6,33.7,28.0,33.0,29.2,22.1,88,83,71,29.21,29.13,10,5,11,0.30
2013-3-3,42.4,35.5,32.2,31.9,29.9,28.7,88,80,65,29.18,29.13,8,4,9,0.01
2013-3-4,39.7,33.5,32.4,33.1,30.1,28.4,93,87,76,29.33,28.99,8,2,8,0.30
2013-3-5,43.9,35.4,31.6,32.2,29.9,27.7,92,80,62,29.81,29.33,9,3,11,0.11
2013-3-6,39.6,31.6,28.2,27.4,20.9,16.5,84,65,53,29.98,29.81,14,6,14,0.08
2013-3-7,34.2,29.7,26.8,21.4,18.8,16.1,68,64,58,29.94,29.83,16,7,16,0.00
2013-3-8,47.1,30.0,21.9,24.0,18.5,14.9,74,63,37,29.90,29.79,11,5,11,0.00
2013-3-9,47.1,29.1,23.9,24.8,18.8,16.8,77,66,41,30.00,29.84,9,3,10,0.00
2013-3-10,46.0,32.0,24.1,24.8,20.1,17.0,75,62,42,30.00,29.82,17,6,17,0.00
2013-3-11,47.7,37.4,30.4,32.7,28.4,21.8,82,70,56,29.83,29.69,18,11,18,0.00
2013-3-12,47.5,40.9,36.1,40.9,37.2,30.3,97,87,73,29.72,29.48,19,12,19,0.13
2013-3-13,46.2,41.0,36.0,45.4,38.5,23.6,99,91,60,29.46,29.21,12,4,12,0.27
2013-3-14,43.2,33.6,24.4,24.8,20.3,12.1,75,59,41,29.24,29.14,11,4,11,0.00
2013-3-15,37.4,23.7,15.3,11.6,5.9,2.0,67,48,27,29.29,29.15,9,3,9,0.00
2013-3-16,36.1,23.3,12.9,8.0,3.2,-2.0,62,43,24,29.41,29.20,9,3,9,0.00
2013-3-17,25.9,13.6,6.4,11.7,-5.9,-15.8,69,41,25,29.77,29.42,20,4,20,0.00
2013-3-18,37.6,17.7,2.5,4.9,-8.1,-15.9,46,32,21,29.91,29.77,12,4,12,0.00
2013-3-19,31.5,22.7,13.3,14.8,2.3,-9.5,79,43,25,29.89,29.40,14,6,17,0.00
2013-3-20,32.2,21.5,15.3,23.8,13.9,8.5,78,72,65,29.40,29.02,9,4,11,0.05
2013-3-21,41.7,28.5,16.7,19.5,14.9,9.8,76,58,34,29.29,29.15,16,6,16,0.02
2013-3-22,44.6,29.0,17.2,24.4,16.0,10.1,74,58,41,29.20,29.05,11,5,15,0.00
2013-3-23,38.1,31.0,24.4,27.8,21.0,14.3,85,66,53,29.08,28.90,8,4,8,0.02
2013-3-24,50.4,34.3,22.1,28.0,24.7,15.1,82,68,39,29.35,29.09,10,3,10,0.04
2013-3-25,45.5,33.1,26.4,28.2,25.0,19.3,91,73,46,29.36,29.25,8,3,8,0.01
2013-3-26,47.7,37.6,25.9,32.2,25.9,15.4,82,63,49,29.25,29.15,17,6,17,0.00
2013-3-27,45.7,37.0,32.7,34.3,30.5,27.6,90,78,60,29.46,29.21,8,3,8,0.26
2013-3-28,56.1,42.9,35.1,31.7,26.4,23.5,74,54,30,29.50,29.43,8,3,8,0.00
2013-3-29,58.1,39.4,33.6,37.0,24.0,16.2,85,56,27,29.55,29.47,12,2,12,0.04
2013-3-30,58.1,44.1,28.8,26.3,18.0,12.8,59,36,21,29.64,29.53,8,3,9,0.00
2013-3-31,54.5,41.7,28.2,22.3,18.2,11.2,55,40,22,29.67,29.50,15,6,15,0.00
2013-4-1,42.4,35.0,30.6,37.6,30.9,19.9,96,86,50,29.48,29.06,8,3,8,0.44
2013-4-2,35.8,27.0,18.1,24.9,11.7,5.6,80,53,30,29.26,29.12,22,6,23,0.00
2013-4-3,36.5,27.9,14.0,16.7,12.2,2.2,71,52,42,29.42,29.22,20,8,21,0.00
2013-4-4,50.2,39.9,23.4,18.5,10.4,3.9,61,31,22,29.62,29.42,21,7,21,0.00
2013-4-5,55.8,38.8,31.3,34.0,26.9,15.3,82,64,33,29.50,29.24,13,4,13,0.00
2013-4-6,38.7,28.3,21.0,24.4,8.6,1.7,77,44,23,29.87,29.31,17,6,20,0.00
2013-4-7,39.2,32.0,18.1,28.7,18.9,2.2,72,59,33,29.89,29.50,23,12,25,0.00
2013-4-8,53.2,43.0,32.5,40.5,33.6,25.5,97,71,46,29.74,29.42,12,4,14,0.05
2013-4-9,37.8,33.7,30.7,33.6,29.9,25.3,91,86,75,29.74,29.61,4,2,5,0.00
2013-4-10,53.1,43.3,33.8,41.8,33.5,27.8,99,70,48,29.55,29.46,8,2,8,0.01
2013-4-11,46.6,35.8,27.1,26.4,13.5,8.9,73,41,25,29.77,29.46,14,5,17,0.00
2013-4-12,45.7,33.3,22.8,30.9,21.1,11.7,98,63,35,29.85,29.62,9,4,9,0.00
2013-4-13,44.8,35.9,29.8,38.5,33.0,29.6,99,89,73,29.61,29.41,4,2,4,0.15
2013-4-14,46.8,37.8,32.4,37.5,34.1,31.3,97,86,70,29.74,29.49,5,2,5,0.11
2013-4-15,60.6,41.5,34.0,37.2,32.5,30.6,97,72,40,29.97,29.75,9,2,10,0.01
2013-4-16,51.3,44.3,33.3,41.6,37.9,31.7,98,79,64,29.97,29.44,29,16,34,0.09
2013-4-17,59.0,47.9,33.4,42.4,27.1,15.4,99,47,22,29.95,29.45,17,6,24,0.03
2013-4-18,49.5,42.3,28.2,30.5,25.7,16.5,67,53,35,30.06,29.68,24,11,24,0.00
2013-4-19,70.7,60.7,41.0,59.1,53.6,30.1,96,78,62,29.64,29.19,31,18,31,0.00
2013-4-20,60.8,51.5,45.7,59.1,50.5,44.9,99,96,93,29.24,29.13,21,7,21,0.32
2013-4-21,52.3,40.6,29.8,27.2,17.5,10.4,81,41,24,30.29,29.65,14,4,14,0.00
2013-4-22,55.4,40.3,25.3,23.8,15.9,9.7,57,38,22,30.42,30.26,14,5,14,0.00
2013-4-23,57.2,42.8,27.5,37.9,26.2,17.0,82,56,24,30.26,29.91,14,6,14,0.00
2013-4-24,54.0,48.0,41.0,52.8,47.2,37.9,99,97,82,29.90,29.38,15,6,15,0.05
2013-4-25,61.2,50.1,36.5,50.3,38.4,28.3,99,67,40,29.88,29.33,17,6,17,0.13
2013-4-26,66.4,49.3,32.0,32.7,29.0,23.3,81,49,23,30.05,29.89,12,3,12,0.00
2013-4-27,69.8,50.4,30.7,33.5,24.8,16.6,73,42,17,30.03,29.88,7,2,7,0.00
2013-4-28,68.9,62.4,35.6,38.6,31.3,21.6,68,33,24,29.94,29.90,9,4,11,0.00
2013-5-11,56.7,55.2,54.1,56.4,54.6,53.3,99,98,97,29.93,29.86,12,7,13,0.48
2013-5-12,57.9,53.1,45.1,57.5,51.8,44.1,99,96,83,29.88,29.73,10,2,12,0.27
2013-5-13,57.9,48.7,36.9,43.9,35.9,29.8,99,63,44,30.19,29.84,18,6,21,0.02
2013-5-14,62.1,50.0,32.5,40.4,36.1,29.1,89,60,41,30.20,30.13,10,3,10,0.00
2013-5-15,68.9,55.0,35.8,41.3,34.7,29.3,83,49,28,30.14,29.94,22,8,24,0.00
2013-5-16,63.3,52.2,43.7,55.8,48.1,42.8,99,87,64,29.95,29.75,13,6,13,0.14
2013-5-17,59.7,47.6,41.7,44.8,40.3,36.7,95,77,55,30.40,29.96,11,4,11,0.00
2013-5-18,65.7,54.4,35.1,42.4,38.6,33.5,97,58,38,30.56,30.40,11,3,11,0.01
2013-5-19,71.1,56.4,36.9,46.9,42.3,35.7,99,63,33,30.60,30.45,14,4,15,0.00
2013-5-20,52.3,49.4,45.3,51.8,48.6,41.3,99,97,82,30.44,30.18,15,6,15,0.44
2013-5-21,65.7,55.5,49.6,60.4,52.4,49.4,99,90,69,30.27,30.19,8,3,11,0.17
2013-5-22,54.7,51.2,48.2,53.1,50.6,47.9,99,98,93,30.25,30.18,15,8,16,0.17
2013-5-23,72.1,59.4,47.1,63.4,57.1,46.9,99,93,73,30.17,29.99,18,9,18,0.14
2013-5-24,64.8,55.8,46.2,64.5,55.1,45.4,99,98,95,30.12,29.89,13,5,14,1.89
2013-5-25,46.0,43.4,41.7,45.2,42.9,41.5,99,98,97,30.18,30.04,11,5,13,1.56
2013-5-26,55.6,48.4,41.5,52.1,46.6,41.0,99,94,82,30.05,29.93,11,3,16,0.50
2013-5-27,57.6,48.7,41.4,43.3,40.5,38.1,99,74,56,30.34,30.03,14,4,18,0.00
2013-5-28,77.5,58.5,38.7,47.0,42.9,36.7,96,59,24,30.44,30.34,9,3,9,0.00
2013-5-29,71.8,59.6,44.6,56.0,49.7,37.5,98,73,41,30.45,30.22,23,10,23,0.34
2013-5-30,77.0,62.2,52.5,66.9,58.9,52.0,99,90,65,30.22,30.15,10,4,10,0.06
2013-5-31,91.9,69.6,58.6,72.0,63.9,57.5,97,84,46,30.22,30.04,10,3,10,0.14
2013-6-1,92.8,76.6,61.9,73.1,67.3,61.3,99,76,49,30.14,30.04,8,3,8,0.01
2013-6-2,85.5,64.3,52.7,72.3,62.1,52.2,99,93,64,30.05,29.87,16,4,16,1.11
2013-6-3,80.4,65.5,59.0,68.2,59.1,49.4,97,81,55,29.98,29.88,12,3,12,0.08
2013-6-4,69.8,59.8,45.9,53.9,45.9,41.0,97,62,39,30.18,29.94,15,5,17,0.00
2013-6-5,74.3,60.5,43.7,45.5,41.0,37.1,82,51,28,30.34,30.18,12,4,12,0.00
2013-6-6,71.4,60.9,43.3,49.3,45.9,38.2,82,60,38,30.41,30.33,9,2,9,0.00
2013-6-7,72.5,60.7,51.4,59.2,52.5,48.1,98,75,55,30.38,30.29,12,3,12,0.09
2013-6-8,56.7,52.8,48.2,55.8,51.9,47.9,99,97,81,30.30,30.00,13,4,17,1.39
2013-6-9,61.0,53.6,45.7,55.5,51.8,44.9,99,94,77,30.35,30.19,7,2,7,0.01
2013-6-10,80.2,64.4,45.0,57.9,54.6,44.2,99,72,44,30.40,30.25,9,3,9,0.01
2013-6-11,61.0,56.3,52.7,57.1,54.5,52.2,99,94,83,30.25,29.92,8,3,8,0.55
2013-6-12,61.3,55.6,51.6,58.8,54.4,51.3,99,96,88,30.00,29.83,10,4,12,0.77
2013-6-13,77.4,59.4,46.4,54.5,49.4,41.8,95,71,45,30.03,29.95,7,2,7,0.00
2013-6-14,77.5,64.5,50.7,59.8,56.2,48.4,99,77,50,29.96,29.86,8,3,8,0.23
2013-6-15,75.4,61.3,49.3,52.9,49.3,45.0,99,68,38,30.01,29.90,13,5,13,0.01
2013-6-16,73.8,56.9,48.6,54.4,50.0,43.6,98,81,42,30.09,29.95,5,2,5,0.31
2013-6-17,80.4,64.1,52.2,65.6,58.8,51.6,99,84,55,30.04,29.92,11,3,18,0.25
2013-6-18,56.1,56.0,55.9,55.3,55.1,54.8,97,97,96,30.05,30.03,5,2,5,0.00
2013-6-19,75.6,61.0,48.2,52.7,48.4,45.4,91,66,43,30.34,30.16,10,4,10,0.00
2013-6-20,80.2,65.7,47.5,55.9,50.1,43.4,87,60,39,30.43,30.34,10,3,10,0.04
2013-6-21,84.4,70.2,52.3,62.2,55.0,48.4,89,60,40,30.42,30.34,11,3,11,0.01
2013-6-22,79.2,68.0,54.5,67.4,60.2,42.2,94,77,53,30.41,30.29,11,3,11,0.00
2013-6-23,59.7,59.6,59.5,58.0,57.9,57.8,94,94,94,30.32,30.32,3,2,3,0.00
2013-6-24,87.3,77.7,64.6,73.2,69.8,64.3,99,78,55,30.11,30.00,11,4,11,0.02
2013-6-25,86.4,73.2,64.0,72.7,66.4,60.6,91,80,64,30.03,29.98,8,3,8,0.00
2013-6-26,69.6,62.2,53.6,65.8,57.2,50.4,97,84,71,30.14,29.92,8,3,14,0.00
2013-6-27,55.6,52.9,48.7,53.5,51.7,47.4,99,96,90,30.19,30.09,8,3,8,0.11
2013-6-28,55.6,53.3,50.7,55.3,52.8,50.4,99,98,97,30.17,29.92,11,5,12,0.46
2013-6-29,71.2,64.8,55.9,70.2,64.3,55.7,99,98,93,29.88,29.82,14,6,17,0.27
2013-6-30,87.1,71.5,64.2,71.4,65.5,62.3,99,82,53,30.13,29.90,11,4,11,0.01
2013-7-1,84.6,72.3,63.0,68.3,61.5,51.0,98,70,53,30.40,30.16,8,2,8,0.00
2013-7-2,66.6,60.5,56.8,57.5,54.7,49.0,93,82,68,30.51,30.40,11,3,11,0.01
2013-7-3,56.7,56.7,56.7,55.0,55.0,55.0,94,94,94,30.43,30.42,0,0,0,0.00
2013-7-4,93.7,79.5,65.8,69.5,67.5,64.5,96,69,45,30.34,30.24,8,3,8,0.00
2013-7-5,90.0,78.6,71.4,71.8,68.1,65.7,88,72,46,30.25,30.19,8,3,8,0.00
2013-7-6,90.5,79.3,68.4,72.4,68.2,63.8,94,70,48,30.21,30.08,8,3,8,0.00
2013-7-7,90.7,75.8,66.4,71.9,63.4,47.2,88,66,50,30.19,30.08,6,3,8,0.00
2013-7-8,66.2,61.6,56.7,53.8,51.9,46.4,82,71,49,30.23,29.93,4,2,4,0.02
2013-7-9,84.6,74.5,55.4,62.6,59.1,48.3,87,60,43,30.02,29.40,13,6,14,0.00
2013-7-10,73.9,67.8,64.4,66.3,64.1,62.5,99,88,76,29.94,29.65,18,10,18,0.00
2013-7-11,88.9,72.6,60.4,72.1,65.4,54.9,99,79,46,29.88,29.59,9,4,11,0.37
2013-7-12,88.2,70.9,52.5,61.9,55.8,50.6,93,62,33,30.09,29.87,8,3,8,0.00
2013-7-13,63.3,62.8,62.6,53.4,53.1,52.3,71,70,69,30.10,30.09,3,2,3,0.00
2013-7-14,97.7,86.7,61.9,69.4,64.7,57.6,87,50,36,30.11,30.02,7,2,8,0.00
2013-7-15,100.2,80.8,67.5,71.3,64.9,60.5,84,60,32,30.01,29.90,7,3,7,0.00
2013-7-16,95.5,82.5,71.4,70.9,67.1,61.5,79,61,43,30.05,29.96,7,3,10,0.00
2013-7-17,76.8,70.7,61.5,67.8,62.9,56.6,84,76,72,30.06,29.96,17,8,19,0.00
2013-7-18,78.3,71.8,65.3,68.2,66.0,63.6,99,83,63,29.86,29.77,8,3,8,0.01
2013-7-19,67.5,65.8,64.0,67.2,64.6,62.2,99,96,87,29.82,29.66,10,4,10,0.11
2013-7-20,86.9,74.3,61.2,73.7,67.1,53.7,97,79,60,29.61,29.41,11,4,13,0.04
2013-7-21,80.1,64.0,50.4,54.7,51.3,47.4,95,66,40,29.90,29.65,7,3,7,0.00
2013-7-22,82.0,67.2,48.7,61.1,54.0,44.7,87,64,44,29.93,29.81,10,4,10,0.00
2013-7-23,66.0,63.0,60.6,65.1,61.4,54.2,98,95,78,29.81,29.42,8,2,8,0.91
2013-7-24,82.2,68.4,54.0,72.2,62.3,50.2,99,82,61,29.82,29.42,11,4,18,0.14
2013-7-25,77.9,63.7,48.7,60.1,53.5,47.7,97,72,52,30.01,29.82,8,3,8,0.00
2013-7-26,63.7,61.4,58.3,62.7,60.5,55.1,99,97,81,30.03,29.82,11,3,12,1.36
2013-7-27,80.6,69.0,57.6,67.8,63.0,57.3,99,82,62,29.91,29.72,9,3,11,0.31
2013-7-28,83.8,69.8,57.2,67.6,62.6,56.1,99,79,55,29.97,29.91,11,4,14,0.00
2013-7-29,72.1,66.2,57.4,66.9,63.2,57.1,99,90,81,29.94,29.89,8,3,8,0.18
2013-7-30,84.0,69.6,57.6,65.9,61.5,55.3,99,77,46,29.91,29.85,10,2,10,0.00
2013-7-31,86.2,72.5,55.6,63.4,59.8,53.6,95,66,45,29.91,29.85,10,3,11,0.00
2013-8-1,83.1,73.8,56.8,66.1,61.4,53.9,93,66,51,29.90,29.78,18,6,19,0.00
2013-8-2,70.7,63.9,58.5,66.7,62.7,57.9,99,96,83,29.78,29.62,14,6,14,0.60
2013-8-3,78.1,66.8,55.0,65.2,60.0,54.2,99,80,56,29.64,29.54,9,3,10,0.13
2013-8-4,81.9,68.4,52.7,64.8,60.3,52.2,99,77,52,29.61,29.55,7,3,10,0.00
2013-8-5,67.6,60.8,54.1,61.3,57.5,53.3,99,89,76,29.76,29.60,11,3,11,0.47
2013-8-6,84.9,66.1,48.7,62.7,55.1,47.2,95,70,45,29.99,29.78,7,3,7,0.00
2013-8-7,83.7,69.5,54.1,63.9,58.2,52.2,95,70,47,30.05,29.98,10,3,10,0.00
2013-8-8,62.6,59.3,53.8,61.8,57.5,50.1,98,94,83,29.99,29.90,11,6,11,0.18
2013-8-9,69.3,66.0,62.2,68.8,65.4,61.7,99,98,96,29.90,29.60,17,6,24,1.06
2013-8-10,76.5,68.1,62.8,67.6,64.5,61.9,99,89,71,29.59,29.55,9,3,9,0.01
2013-8-11,84.4,73.2,60.3,60.3,56.1,52.5,77,56,42,29.80,29.75,11,4,12,0.00
2013-8-12,82.6,68.8,57.7,61.9,57.4,53.5,93,69,46,29.80,29.73,8,3,8,0.00
2013-8-13,76.8,64.7,52.9,64.4,61.9,52.3,98,91,63,29.78,29.57,13,3,13,0.24
2013-8-14,79.5,62.3,52.9,66.1,58.9,49.7,99,89,55,29.61,29.44,10,4,11,0.27
2013-8-15,79.0,63.7,51.8,58.8,54.0,48.4,91,72,50,29.89,29.61,10,4,10,0.00
2013-8-16,79.7,67.8,51.8,62.6,58.6,50.7,97,74,53,30.00,29.89,20,4,20,0.19
2013-8-17,83.3,65.6,54.3,59.7,55.7,51.4,99,73,45,30.11,30.03,6,3,6,0.01
2013-8-18,81.9,69.6,50.9,62.0,58.3,49.5,95,69,51,30.10,29.85,11,4,11,0.00
2013-8-19,86.2,73.1,59.5,66.9,62.0,55.4,91,70,50,29.84,29.69,15,3,15,0.00
2013-8-20,89.1,74.4,62.8,70.2,65.8,61.0,96,76,48,29.92,29.78,9,3,11,0.02
2013-8-21,88.5,77.9,61.9,70.7,66.9,61.3,98,70,52,29.94,29.80,15,4,15,0.00
2013-8-22,86.9,82.4,64.6,71.0,68.5,62.2,94,64,56,29.80,29.66,15,4,15,0.00
2013-8-28,84.6,78.2,68.2,70.4,67.0,63.4,89,69,58,29.95,29.91,5,3,8,0.45
2013-8-29,74.1,61.6,50.2,57.8,53.1,48.8,95,75,56,30.19,30.04,9,4,10,0.00
2013-8-30,80.4,66.5,43.9,65.3,58.1,43.4,99,76,57,30.03,29.75,9,2,11,0.00
2013-8-31,79.3,69.7,60.6,66.8,64.1,60.2,99,83,64,29.85,29.75,8,2,8,0.34
2013-9-1,84.2,73.1,64.0,70.8,65.2,60.3,99,78,55,29.98,29.76,7,3,11,0.31
2013-9-2,62.1,58.5,57.2,58.5,57.2,55.0,99,95,86,30.05,29.82,14,5,14,1.54
2013-9-3,79.0,66.7,57.6,68.4,64.0,57.3,99,91,67,29.81,29.65,9,3,11,0.76
2013-9-4,78.4,66.6,55.9,66.5,58.9,52.1,99,78,56,29.82,29.69,13,4,16,0.01
2013-9-5,68.4,51.9,45.7,49.2,43.7,39.9,92,75,41,30.04,29.85,11,3,11,0.00
2013-9-6,73.9,57.1,40.8,46.5,44.1,37.6,96,64,35,30.08,29.95,9,4,9,0.00
2013-9-7,72.5,61.8,48.4,59.2,52.4,44.9,89,72,62,29.94,29.78,14,6,14,0.00
2013-9-8,58.3,54.6,51.1,58.0,53.9,50.3,99,98,94,29.69,29.63,8,3,8,0.19
2013-9-9,68.4,57.8,39.6,49.4,44.5,37.3,93,63,46,30.06,29.93,18,5,18,0.00
2013-9-10,66.2,60.3,49.8,59.3,55.5,49.0,98,85,72,30.06,30.03,9,4,10,0.00
2013-9-11,87.4,68.3,59.7,73.8,65.6,59.3,99,92,64,30.03,29.81,11,4,11,0.89
2013-9-12,74.7,69.1,66.4,69.2,67.4,65.6,99,95,82,29.88,29.60,10,4,13,0.53
2013-9-13,69.8,63.4,55.9,67.0,61.1,54.8,99,92,83,29.67,29.58,8,3,11,0.40
2013-9-14,64.8,56.2,46.6,57.0,53.3,45.7,99,91,73,29.95,29.66,8,3,8,0.17
2013-9-15,71.6,60.1,46.9,55.3,51.3,46.7,99,74,53,30.02,29.92,17,4,17,0.00
2013-9-16,59.7,49.7,36.1,53.4,45.6,31.5,96,87,55,30.17,29.89,9,3,10,0.09
2013-9-17,69.4,53.4,36.5,47.4,42.9,32.1,90,69,44,30.30,30.17,10,4,13,0.00
2013-9-18,77.4,63.7,44.2,51.4,47.7,40.3,86,58,36,30.19,30.00,14,5,14,0.00
2013-9-19,80.8,66.2,48.9,56.8,52.1,44.3,86,62,42,30.03,29.96,11,3,11,0.00
2013-9-20,70.7,63.3,54.1,58.4,54.6,49.4,85,74,65,30.09,30.00,6,2,6,0.00
2013-9-21,73.2,61.6,54.0,56.7,54.5,52.3,95,79,55,30.04,29.77,21,11,21,0.00
2013-9-22,65.8,59.8,53.6,64.3,58.3,52.5,98,95,86,29.77,29.54,21,7,21,0.81
2013-9-23,53.6,47.7,44.6,52.6,43.9,41.6,97,87,78,29.78,29.63,13,5,14,0.08
2013-9-24,48.7,45.3,42.4,45.5,43.0,40.6,95,92,88,29.75,29.70,9,4,10,0.07
2013-9-25,58.5,50.8,45.9,49.1,45.8,43.3,92,83,71,29.91,29.77,11,4,11,0.00
2013-9-26,65.5,53.8,45.9,53.8,48.6,44.1,95,83,66,30.10,29.91,8,3,8,0.00
2013-9-27,76.1,60.7,50.0,55.7,51.8,48.1,93,74,48,30.22,30.10,7,3,8,0.00
2013-9-28,77.4,67.5,46.0,57.8,53.0,43.6,93,62,42,30.32,30.24,14,2,21,0.00
2013-9-29,79.2,64.5,45.7,59.0,53.3,44.4,98,68,45,30.21,30.08,9,3,10,0.00
2013-9-30,79.3,54.2,41.4,55.5,46.7,40.2,97,78,44,30.08,29.96,8,2,8,0.00
2013-10-1,82.0,65.0,48.6,57.6,52.6,46.3,95,66,42,29.97,29.80,8,3,8,0.00
2013-10-2,78.3,62.2,52.5,60.2,52.4,47.4,93,71,47,29.78,29.65,11,3,11,0.00
2013-10-3,74.3,57.2,46.0,51.6,45.5,41.5,85,66,43,29.97,29.79,9,3,9,0.00
2013-10-4,67.8,54.0,44.2,44.9,40.9,37.5,81,63,38,30.06,29.95,8,3,8,0.00
2013-10-5,67.3,49.7,38.7,44.7,38.8,33.0,88,67,44,30.15,30.04,6,2,8,0.01
2013-10-6,60.8,48.5,36.0,41.2,37.2,30.7,85,66,44,30.26,30.15,9,3,9,0.00
2013-10-7,48.2,44.1,42.1,43.9,42.2,39.8,99,93,76,30.19,30.12,12,6,12,0.04
2013-10-8,65.3,51.8,47.3,63.8,50.0,44.9,98,94,87,29.89,29.68,7,2,7,0.31
2013-10-9,68.0,51.1,37.6,45.7,41.1,34.7,92,71,44,30.42,30.27,9,3,9,0.00
2013-10-10,72.9,54.2,38.3,50.6,44.8,38.0,99,73,43,30.27,30.14,8,3,8,0.00
2013-10-11,77.2,60.8,50.0,57.4,50.9,43.8,84,71,48,30.23,30.12,5,3,5,0.00
2013-10-12,60.1,51.3,44.4,49.0,44.8,40.5,92,79,63,30.39,30.24,11,3,11,0.00
2013-10-13,66.0,49.3,36.1,48.4,42.8,35.4,99,80,50,30.42,30.31,7,2,7,0.00
2013-10-14,53.2,49.9,41.4,52.4,48.9,41.1,99,96,92,30.30,30.18,9,3,9,0.01
2013-10-15,71.1,56.9,47.3,52.8,48.3,41.4,99,75,46,30.26,30.19,8,2,10,0.00
2013-10-16,59.5,51.0,44.2,52.3,48.8,40.0,99,92,74,30.21,29.95,17,6,17,0.00
2013-10-17,53.1,52.6,52.0,52.5,52.0,51.4,98,98,98,29.86,29.73,7,4,7,0.01
2013-10-18,59.9,50.2,46.4,53.7,48.2,43.6,99,93,80,29.70,29.57,7,2,7,0.38
2013-10-19,65.5,52.2,45.5,45.4,43.0,39.9,86,72,48,29.83,29.68,11,4,11,0.00
2013-10-20,61.7,49.6,41.4,49.9,42.4,34.4,99,78,47,29.78,29.60,12,4,12,0.05
2013-10-21,60.8,45.7,36.9,41.9,35.5,31.3,85,68,46,29.97,29.79,7,3,7,0.00
2013-10-22,57.6,49.1,41.0,52.0,44.7,35.4,97,85,69,29.94,29.62,20,7,20,0.19
2013-10-23,50.9,38.8,33.1,40.8,33.6,28.9,99,82,63,29.68,29.54,7,2,7,0.00
2013-10-24,46.4,39.6,29.1,34.8,29.8,26.0,89,68,55,29.61,29.49,21,5,21,0.00
2013-10-25,49.3,40.6,34.0,36.1,31.9,27.2,83,71,56,29.93,29.63,9,4,9,0.00
2013-10-26,44.8,37.3,30.2,36.8,30.5,26.2,97,77,55,29.98,29.82,13,5,13,0.05
2013-10-27,49.3,39.9,35.6,41.2,37.4,31.2,98,91,72,29.82,29.70,8,4,9,0.01
2013-10-28,44.1,35.8,31.8,34.4,30.0,27.2,83,79,68,29.93,29.83,9,3,10,0.01
2013-10-29,44.1,30.9,24.3,30.2,23.1,17.8,85,73,54,30.36,30.24,9,2,9,0.00
2013-10-30,46.0,31.3,20.1,27.5,21.7,16.1,84,69,43,30.28,30.07,8,2,8,0.00
2013-10-31,52.5,37.9,26.8,52.0,32.9,21.7,99,83,69,30.15,29.69,16,6,16,0.34
2013-11-1,62.4,58.4,52.9,59.2,55.1,45.4,99,89,66,29.67,29.14,27,15,30,0.67
2013-11-2,57.2,47.3,36.9,46.5,41.0,28.4,91,79,63,29.74,29.37,12,3,12,0.01
2013-11-3,44.8,32.4,25.3,25.0,20.0,14.1,69,60,45,30.31,29.80,13,4,13,0.00
2013-11-4,45.9,30.5,19.9,25.7,18.2,12.0,72,60,43,30.64,30.33,8,3,8,0.00
2013-11-5,41.2,31.2,22.3,29.1,22.4,14.8,84,70,56,30.64,30.40,11,4,11,0.00
2013-11-6,54.5,42.7,30.2,42.1,36.8,27.1,89,80,61,30.40,29.86,17,9,20,0.00
2013-11-7,51.3,47.2,36.5,50.2,44.8,31.4,96,91,82,29.82,29.54,17,8,18,0.32
2013-11-8,44.2,35.2,31.1,31.0,27.0,24.3,85,72,56,29.73,29.61,8,4,8,0.01
2013-11-9,37.4,34.0,31.5,25.6,23.5,21.5,74,65,56,30.02,29.73,13,3,13,0.00
2013-11-11,31.6,31.3,31.1,28.9,28.8,28.5,91,90,89,29.91,29.88,10,8,10,0.00
2013-11-12,34.5,27.5,23.0,32.1,18.1,13.0,97,68,54,30.02,29.81,14,5,16,0.01
2013-11-13,37.6,24.2,16.0,19.1,12.4,7.1,70,61,45,30.15,30.01,11,4,11,0.00
2013-11-14,36.1,32.1,18.1,28.2,22.5,10.3,75,67,63,30.06,29.93,12,5,14,0.01
2013-11-15,49.8,40.5,35.2,33.4,29.7,26.9,74,65,52,30.24,30.07,14,4,14,0.00
2013-11-16,49.3,39.5,32.7,36.4,29.7,25.9,77,68,56,30.41,30.25,4,2,4,0.00
2013-11-17,45.0,39.1,28.8,39.8,36.2,25.7,95,89,71,30.41,30.18,11,5,12,0.00
2013-11-18,59.4,45.0,37.9,56.2,43.8,37.2,99,96,77,30.10,29.44,21,6,21,0.60
2013-11-19,38.1,32.4,28.8,37.3,21.3,15.4,97,64,55,30.10,29.58,17,6,21,0.00
2013-11-20,28.6,25.3,22.8,14.5,6.3,3.8,56,44,35,30.41,30.10,20,10,20,0.01
2013-11-21,52.7,34.3,17.8,21.9,14.1,8.3,70,47,23,30.62,30.53,7,3,7,0.00
2013-11-22,40.6,33.9,26.1,28.5,21.1,12.8,94,61,47,30.36,29.79,6,2,6,0.00
2013-11-23,35.4,28.1,19.2,33.0,18.7,8.4,99,68,55,29.78,29.58,24,7,24,0.01
2013-11-24,21.0,17.9,16.3,11.5,6.7,4.2,71,61,56,29.68,29.50,21,7,21,0.00
2013-11-27,54.1,52.8,50.9,53.3,52.2,50.6,99,98,97,29.91,29.68,16,8,16,1.46
2013-11-28,36.5,25.2,17.8,35.7,16.4,6.5,99,70,55,30.54,29.72,7,0,7,0.05
2013-12-1,26.2,26.1,25.9,24.3,24.3,23.9,93,92,92,29.92,29.89,2,2,9,0.65
2013-12-2,32.9,30.9,25.5,32.5,29.3,23.5,99,94,85,29.90,29.71,4,2,4,0.00
2013-12-3,39.4,35.2,32.7,38.6,34.4,32.5,99,97,91,29.68,29.55,7,3,8,0.14
2013-12-4,38.5,33.6,31.5,32.2,28.0,26.2,96,80,72,29.89,29.49,11,4,13,0.00
2013-12-5,40.5,32.9,28.8,40.2,29.7,24.8,99,88,80,29.97,29.62,18,9,19,0.02
2013-12-6,43.0,36.0,32.9,42.5,31.7,23.5,99,84,67,29.69,29.53,11,3,11,0.20
2013-12-7,34.7,26.1,18.5,20.3,10.2,3.4,62,51,37,29.97,29.69,13,5,13,0.00
2013-12-8,23.9,18.3,14.0,5.5,2.8,0.7,55,50,44,30.14,29.97,10,5,11,0.00
2013-12-9,17.8,15.1,8.1,12.6,7.5,-2.7,82,72,49,30.23,29.55,12,4,14,0.00
2013-12-10,29.5,20.1,16.7,22.7,15.5,12.4,87,82,67,29.51,29.42,5,3,5,0.00
2013-12-11,16.2,12.5,9.5,4.3,1.4,-5.0,68,61,51,29.71,29.66,7,3,7,0.00
2013-12-12,11.7,1.3,-3.8,-4.9,-15.7,-20.5,64,44,24,29.85,29.61,7,3,7,0.00
2013-12-13,5.0,3.1,0.1,-4.7,-8.1,-12.9,63,59,52,29.59,29.47,8,4,8,0.00
2013-12-14,12.2,0.4,-12.5,-13.2,-18.4,-25.5,54,41,24,30.37,30.09,11,3,11,0.00
2013-12-15,16.5,10.6,-1.1,11.5,4.0,-15.2,80,74,49,30.28,29.26,12,5,16,0.00
2013-12-16,18.3,10.8,-3.8,8.8,0.7,-15.8,79,64,48,29.85,29.34,15,6,20,0.00
2013-12-17,16.3,4.1,-8.5,-3.0,-9.8,-20.7,64,52,34,30.06,29.86,6,3,8,0.00
2013-12-18,25.0,10.1,2.3,9.8,1.6,-6.2,78,68,52,29.92,29.61,5,3,5,0.00
2013-12-19,24.4,19.1,13.3,19.2,12.3,6.5,87,75,55,29.83,29.61,8,3,8,0.00
2013-12-20,23.5,15.6,12.6,19.1,9.0,4.6,84,75,67,29.97,29.80,6,3,6,0.00
2013-12-21,22.6,18.7,14.7,18.8,13.8,8.8,86,81,77,29.85,29.64,8,2,8,0.00
2013-12-22,20.8,18.1,16.5,17.6,13.5,11.7,87,82,76,29.93,29.82,11,5,11,0.00
2013-12-23,20.1,18.7,17.6,16.9,14.6,12.8,87,84,81,29.94,29.90,6,3,6,0.00
2013-12-24,27.1,18.3,11.1,21.0,12.3,4.2,90,77,64,29.91,29.81,0,0,0,0.00
2013-12-25,23.0,10.5,1.0,5.3,-1.5,-8.5,76,59,41,30.30,29.83,0,0,0,0.00
2013-12-26,14.2,6.1,-2.4,7.9,-1.7,-10.8,78,70,64,30.26,29.92,0,0,0,0.00
2013-12-27,28.9,18.2,5.7,18.2,10.1,-0.8,80,70,56,29.91,29.83,0,0,0,0.00
2013-12-28,31.1,20.1,9.0,27.9,14.9,2.1,91,80,73,29.86,29.64,0,0,0,0.00
2013-12-29,30.4,14.5,9.5,26.1,8.1,2.6,86,75,67,29.91,29.44,0,0,0,0.00
2013-12-30,25.2,10.0,-0.8,17.7,0.5,-12.6,81,65,47,29.83,29.34,11,2,11,0.00
2013-12-31,14.7,0.7,-9.4,-9.1,-15.4,-21.9,59,47,27,29.91,29.80,7,2,7,0.00
2014-1-1,12.7,-0.7,-15.0,-4.9,-15.9,-28.8,65,48,33,30.18,29.81,9,3,9,0.00
2014-1-2,-15.7,-20.8,-20.9,-27.8,-34.7,-34.9,54,47,47,30.29,30.04,3,2,3,0.00